• In United Kingdom
  • List of Countries
  • For 7 days
  • Water Temperature
  • Satellite Maps
  • Weather Map
  • Weather Widgets
  • user-avatar
    Login

    Hourly Weather Ischgl

    Today, 18 January, Thursday

    Time Temperature Precipitation Wind Pressure Humidity
    00:00 -15°C° 0.5 mm 3 mps 566 mmHg 93%
    01:00 -15°C° 0.5 mm 3 mps 566 mmHg 93%
    02:00 -15°C° 0.5 mm 3 mps 566 mmHg 93%
    03:00 -15°C° 0.5 mm 3 mps 566 mmHg 92%
    04:00 -14°C° 0.5 mm 2 mps 566 mmHg 92%
    05:00 -15°C° 0.3 mm 3 mps 565 mmHg 90%
    06:00 -15°C° 0.3 mm 3 mps 565 mmHg 89%
    07:00 -14°C° 0.3 mm 3 mps 565 mmHg 87%
    08:00 -13°C° 0.5 mm 3 mps 566 mmHg 88%
    09:00 -12°C° 0.5 mm 3 mps 566 mmHg 88%
    10:00 -10°C° 0.5 mm 3 mps 566 mmHg 89%
    11:00 -9°C° 0.6 mm 3 mps 566 mmHg 89%
    12:00 -8°C° 0.6 mm 3 mps 566 mmHg 90%
    13:00 -7°C° 0.6 mm 3 mps 567 mmHg 90%
    14:00 -6°C° 0.3 mm 3 mps 566 mmHg 91%
    15:00 -6°C° 0.3 mm 3 mps 566 mmHg 91%
    16:00 -6°C° 0.3 mm 3 mps 566 mmHg 91%
    17:00 -6°C° 0.2 mm 3 mps 566 mmHg 91%
    18:00 -7°C° 0.2 mm 3 mps 566 mmHg 91%
    19:00 -7°C° 0.2 mm 3 mps 566 mmHg 90%
    20:00 -7°C° 0.2 mm 3 mps 566 mmHg 90%
    21:00 -7°C° 0.2 mm 3 mps 566 mmHg 90%
    22:00 -7°C° 0.2 mm 3 mps 566 mmHg 90%
    23:00 -7°C° 0.2 mm 3 mps 566 mmHg 90%

    Tomorrow, 19 January, Friday

    Time Temperature Precipitation Wind Pressure Humidity
    00:00 -7°C° 0.2 mm 3 mps 566 mmHg 90%
    01:00 -7°C° 0.2 mm 3 mps 566 mmHg 90%
    02:00 -8°C° 0.6 mm 3 mps 565 mmHg 90%
    03:00 -8°C° 0.6 mm 3 mps 565 mmHg 91%
    04:00 -7°C° 0.6 mm 2 mps 565 mmHg 91%
    05:00 -7°C° 1 mm 2 mps 565 mmHg 92%
    06:00 -7°C° 1 mm 2 mps 565 mmHg 93%
    07:00 -7°C° 1 mm 2 mps 566 mmHg 95%
    08:00 -7°C° 0.7 mm 2 mps 566 mmHg 95%
    09:00 -8°C° 0.7 mm 2 mps 566 mmHg 95%
    10:00 -8°C° 0.7 mm 2 mps 566 mmHg 95%
    11:00 -8°C° 0.7 mm 2 mps 566 mmHg 94%
    12:00 -8°C° 0.7 mm 2 mps 566 mmHg 94%
    13:00 -9°C° 0.7 mm 3 mps 566 mmHg 93%
    14:00 -9°C° 0.3 mm 2 mps 566 mmHg 92%
    15:00 -9°C° 0.3 mm 2 mps 565 mmHg 91%
    16:00 -10°C° 0.3 mm 2 mps 565 mmHg 90%
    17:00 -13°C° 0 mm 2 mps 564 mmHg 89%
    18:00 -14°C° 0 mm 2 mps 564 mmHg 87%
    19:00 -16°C° 0 mm 2 mps 563 mmHg 86%
    20:00 -15°C° 0 mm 2 mps 563 mmHg 83%
    21:00 -14°C° 0 mm 2 mps 564 mmHg 80%
    22:00 -14°C° 0 mm 2 mps 565 mmHg 76%
    23:00 -13°C° 0.3 mm 2 mps 565 mmHg 81%

    Day after tomorrow, 20 January, Saturday

    Time Temperature Precipitation Wind Pressure Humidity
    00:00 -13°C° 0.3 mm 2 mps 565 mmHg 85%
    01:00 -13°C° 0.3 mm 2 mps 566 mmHg 89%
    02:00 -14°C° 0.2 mm 2 mps 565 mmHg 90%
    03:00 -14°C° 0.2 mm 2 mps 565 mmHg 91%
    04:00 -14°C° 0.2 mm 2 mps 565 mmHg 92%
    05:00 -15°C° 0.2 mm 2 mps 565 mmHg 92%
    06:00 -15°C° 0.2 mm 2 mps 565 mmHg 91%
    07:00 -15°C° 0.2 mm 2 mps 564 mmHg 90%
    08:00 -14°C° 0.3 mm 2 mps 565 mmHg 89%
    09:00 -14°C° 0.3 mm 2 mps 565 mmHg 89%
    10:00 -13°C° 0.3 mm 2 mps 566 mmHg 88%
    11:00 -12°C° 0.2 mm 2 mps 565 mmHg 84%
    12:00 -12°C° 0.2 mm 2 mps 565 mmHg 81%
    13:00 -10°C° 0.2 mm 2 mps 565 mmHg 77%
    14:00 -10°C° 0.2 mm 2 mps 565 mmHg 81%
    15:00 -10°C° 0.2 mm 2 mps 564 mmHg 84%
    16:00 -12°C° 0.2 mm 2 mps 564 mmHg 87%
    17:00 -12°C° 0.7 mm 2 mps 564 mmHg 89%
    18:00 -13°C° 0.7 mm 2 mps 564 mmHg 91%
    19:00 -13°C° 0.7 mm 2 mps 563 mmHg 93%
    20:00 -13°C° 1.1 mm 2 mps 564 mmHg 93%
    21:00 -13°C° 1.1 mm 2 mps 564 mmHg 94%
    22:00 -11°C° 1.1 mm 1 mps 564 mmHg 95%
    23:00 -13°C° 1.1 mm 2 mps 565 mmHg 95%

    21 January, Sunday

    Time Temperature Precipitation Wind Pressure Humidity
    00:00 -13°C° 1.1 mm 2 mps 565 mmHg 96%
    01:00 -12°C° 1.1 mm 2 mps 565 mmHg 96%
    02:00 -13°C° 0.7 mm 2 mps 565 mmHg 96%
    03:00 -13°C° 0.7 mm 2 mps 565 mmHg 96%
    04:00 -13°C° 0.7 mm 2 mps 566 mmHg 96%
    05:00 -13°C° 0.6 mm 2 mps 566 mmHg 95%
    06:00 -14°C° 0.6 mm 2 mps 566 mmHg 95%
    07:00 -14°C° 0.6 mm 2 mps 566 mmHg 95%
    08:00 -13°C° 0.7 mm 2 mps 567 mmHg 95%
    09:00 -13°C° 0.7 mm 2 mps 568 mmHg 94%
    10:00 -13°C° 0.7 mm 2 mps 568 mmHg 94%
    11:00 -12°C° 0.7 mm 2 mps 568 mmHg 94%
    12:00 -10°C° 0.7 mm 2 mps 569 mmHg 93%
    13:00 -10°C° 0.7 mm 2 mps 569 mmHg 92%
    14:00 -10°C° 0.8 mm 2 mps 569 mmHg 93%
    15:00 -9°C° 0.8 mm 2 mps 569 mmHg 93%
    16:00 -9°C° 0.8 mm 2 mps 569 mmHg 94%
    17:00 -9°C° 1.4 mm 2 mps 569 mmHg 94%
    18:00 -9°C° 1.4 mm 2 mps 569 mmHg 94%
    19:00 -9°C° 1.4 mm 2 mps 569 mmHg 95%
    20:00 -8°C° 2.6 mm 2 mps 570 mmHg 95%
    21:00 -8°C° 2.6 mm 2 mps 570 mmHg 96%
    22:00 -7°C° 2.6 mm 2 mps 570 mmHg 96%
    23:00 -7°C° 3.4 mm 2 mps 570 mmHg 97%

    22 January, Monday

    Time Temperature Precipitation Wind Pressure Humidity
    00:00 -6°C° 3.4 mm 2 mps 571 mmHg 97%
    01:00 -6°C° 3.4 mm 2 mps 571 mmHg 97%
    02:00 -5°C° 2.9 mm 2 mps 571 mmHg 97%
    03:00 -5°C° 2.9 mm 2 mps 571 mmHg 97%
    04:00 -5°C° 2.9 mm 2 mps 572 mmHg 97%
    05:00 -4°C° 2.5 mm 2 mps 572 mmHg 97%
    06:00 -5°C° 2.5 mm 3 mps 572 mmHg 97%
    07:00 -5°C° 2.5 mm 3 mps 573 mmHg 96%
    08:00 -5°C° 1.1 mm 3 mps 573 mmHg 96%
    09:00 -4°C° 1.1 mm 2 mps 573 mmHg 96%
    10:00 -3°C° 1.1 mm 2 mps 574 mmHg 96%
    11:00 -3°C° 0.8 mm 2 mps 574 mmHg 97%
    12:00 -3°C° 0.8 mm 2 mps 574 mmHg 98%
    13:00 -3°C° 0.8 mm 2 mps 574 mmHg 98%
    14:00 -3°C° 1.1 mm 2 mps 575 mmHg 97%
    15:00 -3°C° 1.1 mm 2 mps 575 mmHg 96%
    16:00 -3°C° 1.1 mm 2 mps 575 mmHg 95%
    17:00 -3°C° 2 mm 2 mps 575 mmHg 95%
    18:00 -4°C° 2 mm 2 mps 575 mmHg 95%
    19:00 -4°C° 2 mm 2 mps 575 mmHg 95%
    20:00 -4°C° 0.5 mm 2 mps 575 mmHg 94%
    21:00 -4°C° 0.5 mm 2 mps 576 mmHg 94%
    22:00 -4°C° 0.5 mm 2 mps 576 mmHg 94%
    23:00 -5°C° 0 mm 2 mps 576 mmHg 94%

    23 January, Tuesday

    Time Temperature Precipitation Wind Pressure Humidity
    00:00 -5°C° 0 mm 2 mps 576 mmHg 93%
    01:00 -5°C° 0 mm 2 mps 576 mmHg 93%
    02:00 -6°C° 0 mm 2 mps 575 mmHg 92%
    03:00 -6°C° 0 mm 2 mps 575 mmHg 91%
    04:00 -6°C° 0 mm 2 mps 575 mmHg 90%
    05:00 -7°C° 0 mm 2 mps 575 mmHg 89%
    06:00 -7°C° 0 mm 2 mps 576 mmHg 88%
    07:00 -7°C° 0 mm 2 mps 576 mmHg 88%
    08:00 -6°C° 0 mm 2 mps 576 mmHg 88%
    09:00 -5°C° 0 mm 2 mps 577 mmHg 88%
    10:00 -4°C° 0 mm 2 mps 578 mmHg 88%
    11:00 -4°C° 0.1 mm 2 mps 578 mmHg 91%
    12:00 -3°C° 0.1 mm 2 mps 578 mmHg 93%
    13:00 -3°C° 0.1 mm 2 mps 579 mmHg 96%
    14:00 -3°C° 0 mm 2 mps 579 mmHg 94%
    15:00 -4°C° 0 mm 2 mps 578 mmHg 91%
    16:00 -2°C° 0 mm 1 mps 578 mmHg 88%
    17:00 -5°C° 0 mm 2 mps 578 mmHg 85%
    18:00 -6°C° 0 mm 2 mps 578 mmHg 82%
    19:00 -7°C° 0 mm 2 mps 578 mmHg 79%
    20:00 -7°C° 0 mm 2 mps 578 mmHg 78%
    21:00 -6°C° 0 mm 1 mps 578 mmHg 77%
    22:00 -6°C° 0 mm 1 mps 578 mmHg 76%
    23:00 -6°C° 0 mm 1 mps 578 mmHg 73%
    Show more